TimeMST,TemperatureF,Dew PointF,Humidity,Sea Level PressureIn,VisibilityMPH,Wind Direction,Wind SpeedMPH,Gust SpeedMPH,PrecipitationIn,Events,Conditions,WindDirDegrees,DateUTC
12:52 AM,10.0,7.0,87,30.16,10.0,WSW,5.8,-,N/A,,Clear,250,2012-11-11 07:52:00
1:52 AM,9.0,6.1,88,30.18,10.0,WSW,3.5,-,N/A,,Clear,240,2012-11-11 08:52:00
2:22 AM,8.6,6.8,92,30.07,10.0,SSW,4.6,-,N/A,,Partly Cloudy,210,2012-11-11 09:22:00
2:52 AM,10.9,7.0,84,30.19,10.0,WSW,6.9,-,N/A,,Partly Cloudy,240,2012-11-11 09:52:00
3:03 AM,8.6,6.8,92,30.08,10.0,West,5.8,-,N/A,,Mostly Cloudy,260,2012-11-11 10:03:00
3:16 AM,10.4,8.6,92,30.08,1.8,WSW,5.8,-,N/A,,Overcast,240,2012-11-11 10:16:00
3:18 AM,12.2,8.6,85,30.08,0.8,SW,6.9,-,N/A,,Overcast,230,2012-11-11 10:18:00
3:52 AM,12.0,10.0,92,30.20,0.2,South,4.6,-,N/A,Fog,Light Freezing Fog,190,2012-11-11 10:52:00
4:29 AM,10.4,6.8,85,30.10,3.0,SSW,4.6,-,N/A,,Mostly Cloudy,210,2012-11-11 11:29:00
4:35 AM,8.6,5.0,85,30.10,10.0,SW,3.5,-,N/A,,Scattered Clouds,220,2012-11-11 11:35:00
4:52 AM,7.0,3.0,84,30.25,10.0,SW,4.6,-,N/A,,Clear,220,2012-11-11 11:52:00
5:13 AM,6.8,3.2,85,30.12,0.8,SSE,5.8,-,N/A,,Mist,160,2012-11-11 12:13:00
5:39 AM,5.0,1.4,85,30.13,4.0,South,3.5,-,N/A,,Scattered Clouds,190,2012-11-11 12:39:00
5:52 AM,8.1,3.9,83,30.29,10.0,Calm,Calm,-,N/A,,Partly Cloudy,0,2012-11-11 12:52:00
6:52 AM,6.1,3.0,87,30.33,5.0,SW,3.5,-,N/A,,Mostly Cloudy,220,2012-11-11 13:52:00
7:01 AM,6.8,3.2,85,30.17,1.2,Calm,Calm,-,N/A,,Mostly Cloudy,0,2012-11-11 14:01:00
7:06 AM,6.8,3.2,85,30.17,0.2,SSW,3.5,-,N/A,Fog,Light Freezing Fog,210,2012-11-11 14:06:00
7:34 AM,5.0,1.4,85,30.20,10.0,Calm,Calm,-,N/A,,Partly Cloudy,0,2012-11-11 14:34:00
7:52 AM,7.0,3.0,84,30.37,10.0,SSW,4.6,-,N/A,,Clear,200,2012-11-11 14:52:00
8:25 AM,6.8,5.0,92,30.23,1.8,South,4.6,-,N/A,,Mostly Cloudy,190,2012-11-11 15:25:00
8:27 AM,8.6,6.8,92,30.23,3.0,South,3.5,-,N/A,,Mostly Cloudy,190,2012-11-11 15:27:00
8:57 AM,12.2,10.4,92,30.25,1.5,SSW,5.8,-,N/A,,Overcast,200,2012-11-11 15:57:00
8:59 AM,12.2,10.4,92,30.25,0.8,SSW,5.8,-,N/A,,Mist,200,2012-11-11 15:59:00
9:51 AM,12.9,12.0,96,30.43,1.8,South,8.1,-,N/A,,Overcast,190,2012-11-11 16:51:00
10:02 AM,15.8,12.2,86,30.28,3.0,South,5.8,-,N/A,,Mostly Cloudy,190,2012-11-11 17:02:00
10:15 AM,15.8,14.0,93,30.28,10.0,South,4.6,-,N/A,,Scattered Clouds,180,2012-11-11 17:15:00
10:40 AM,17.6,15.8,93,30.29,1.2,Calm,Calm,-,N/A,,Mostly Cloudy,0,2012-11-11 17:40:00
10:52 AM,19.0,17.1,92,30.44,0.5,Calm,Calm,-,N/A,Fog,Light Freezing Fog,0,2012-11-11 17:52:00
11:25 AM,21.2,17.6,86,30.31,2.0,Calm,Calm,-,N/A,,Overcast,0,2012-11-11 18:25:00
11:32 AM,23.0,17.6,80,30.31,5.0,Calm,Calm,-,N/A,,Haze,0,2012-11-11 18:32:00
11:40 AM,23.0,17.6,80,30.31,9.0,North,4.6,-,0.00,Snow,Light Snow,360,2012-11-11 18:40:00
11:52 AM,23.0,19.0,85,30.45,9.0,North,4.6,-,0.00,Snow,Light Snow,360,2012-11-11 18:52:00
12:03 PM,21.2,17.6,86,30.31,10.0,North,5.8,-,N/A,,Mostly Cloudy,10,2012-11-11 19:03:00
12:21 PM,21.2,17.6,86,30.31,10.0,NE,5.8,-,N/A,,Scattered Clouds,40,2012-11-11 19:21:00
12:52 PM,21.9,18.0,85,30.46,10.0,North,3.5,-,N/A,,Clear,350,2012-11-11 19:52:00
1:52 PM,26.1,19.9,78,30.45,10.0,North,5.8,-,N/A,,Clear,360,2012-11-11 20:52:00
2:52 PM,28.0,19.9,72,30.45,10.0,North,6.9,-,N/A,,Clear,10,2012-11-11 21:52:00
3:52 PM,28.9,19.0,67,30.45,10.0,North,6.9,-,N/A,,Clear,10,2012-11-11 22:52:00
4:52 PM,26.1,21.0,81,30.50,10.0,North,4.6,-,N/A,,Clear,360,2012-11-11 23:52:00
5:52 PM,21.0,19.0,92,30.52,10.0,North,6.9,-,N/A,,Clear,350,2012-11-12 00:52:00
6:52 PM,19.0,14.0,81,30.56,10.0,Variable,3.5,-,N/A,,Clear,0,2012-11-12 01:52:00
7:52 PM,21.0,14.0,74,30.56,10.0,Calm,Calm,-,N/A,,Clear,0,2012-11-12 02:52:00
8:52 PM,17.1,12.0,81,30.56,10.0,WNW,4.6,-,N/A,,Clear,300,2012-11-12 03:52:00
9:52 PM,16.0,10.9,81,30.58,10.0,Calm,Calm,-,N/A,,Clear,0,2012-11-12 04:52:00
10:52 PM,16.0,10.0,77,30.57,10.0,WNW,3.5,-,N/A,,Clear,290,2012-11-12 05:52:00
11:52 PM,12.9,9.0,84,30.58,10.0,Calm,Calm,-,N/A,,Clear,0,2012-11-12 06:52:00